Location: Zagreb
(45.8000°N, 16.0000°E)
Time: 03:12:39
(UTC+02:00)

Vanguard 2 Rocket - Pass Details

Date: 13 August 2022
Orbit: 553 x 3323 km, 32.9° (Epoch: 30 September)

Event Time Altitude Azimuth Distance (km) Brightness Sun altitude
Rises 22:01:29 0° 276° (W) 7,100 12.3 -17.4°
Reaches altitude 10° 22:10:03 10° 257° (WSW) 5,630 11.3 -18.5°
Maximum altitude 22:16:45 14° 232° (SW) 4,799 10.6 -19.3°
Drops below altitude 10° 22:22:27 10° 207° (SSW) 4,591 10.2 -19.9°
Enters shadow 22:26:11 - 190° (S) 4,791 10.2 -20.4°
